View from above orbital plane
|
View from above satellite
|
Ground track
|
The orbit data is extracted from the following two-line orbital elements,
1 23711U 95059B 21018.89799226 -.00000060 00000-0 -24787-4 0 9996
2 23711 100.6275 28.3225 0367536 238.2940 180.1622 13.12723444207726
Epoch (UTC): | 18 January 2021 21:33:06 |
Eccentricity: | 0.0367536 |
inclination: | 100.6275° |
perigee height: | 933 km |
apogee height: | 1491 km |
right ascension of ascending node: | 28.3225° |
argument of perigee: | 238.2940° |
revolutions per day: | 13.12723444 |
mean anomaly at epoch: | 180.1622° |
orbit number at epoch: | 20772 |
The dashed part of the orbit path shows where the satellite is in the earth's shadow,
|
|